TimeCDT,TemperatureF,Dew PointF,Humidity,Sea Level PressureIn,VisibilityMPH,Wind Direction,Wind SpeedMPH,Gust SpeedMPH,PrecipitationIn,Events,Conditions,WindDirDegrees,DateUTC
12:13 AM,33.8,24.8,70,30.32,10.0,SW,4.6,-,N/A,,Overcast,220,2012-10-27 05:13:00
12:33 AM,33.8,24.8,70,30.32,10.0,SW,4.6,-,N/A,,Overcast,220,2012-10-27 05:33:00
12:53 AM,33.8,26.6,75,30.32,10.0,SW,4.6,-,N/A,,Overcast,220,2012-10-27 05:53:00
1:13 AM,33.8,26.6,75,30.31,10.0,SW,4.6,-,N/A,,Overcast,220,2012-10-27 06:13:00
1:33 AM,32.0,26.6,80,30.31,10.0,SW,4.6,-,N/A,,Overcast,220,2012-10-27 06:33:00
1:53 AM,32.0,26.6,80,30.31,10.0,SW,5.8,-,N/A,,Overcast,230,2012-10-27 06:53:00
2:13 AM,30.2,24.8,80,30.31,10.0,SW,5.8,-,N/A,,Overcast,230,2012-10-27 07:13:00
2:53 AM,28.4,24.8,86,30.31,10.0,SW,5.8,-,N/A,,Mostly Cloudy,230,2012-10-27 07:53:00
3:13 AM,26.6,23.0,86,30.31,10.0,WSW,5.8,-,N/A,,Clear,240,2012-10-27 08:13:00
3:33 AM,26.6,21.2,80,30.31,10.0,WSW,5.8,-,N/A,,Clear,240,2012-10-27 08:33:00
3:54 AM,26.6,21.2,80,30.31,10.0,WSW,5.8,-,N/A,,Clear,240,2012-10-27 08:54:00
4:13 AM,24.8,21.2,86,30.31,10.0,WSW,5.8,-,N/A,,Clear,250,2012-10-27 09:13:00
4:33 AM,24.8,21.2,86,30.30,10.0,West,4.6,-,N/A,,Clear,260,2012-10-27 09:33:00
4:53 AM,23.0,21.2,93,30.31,10.0,West,4.6,-,N/A,,Clear,260,2012-10-27 09:53:00
5:13 AM,23.0,21.2,93,30.31,10.0,WSW,5.8,-,N/A,,Clear,250,2012-10-27 10:13:00
5:33 AM,21.2,19.4,93,30.31,10.0,WSW,5.8,-,N/A,,Clear,250,2012-10-27 10:33:00
5:53 AM,21.2,19.4,93,30.32,10.0,WSW,4.6,-,N/A,,Clear,240,2012-10-27 10:53:00
6:13 AM,21.2,21.2,100,30.32,10.0,Calm,Calm,-,N/A,,Clear,0,2012-10-27 11:13:00
6:33 AM,24.8,21.2,86,30.32,10.0,Calm,Calm,-,N/A,,Clear,0,2012-10-27 11:33:00
6:53 AM,24.8,21.2,86,30.32,10.0,SW,3.5,-,N/A,,Clear,220,2012-10-27 11:53:00
7:13 AM,23.0,21.2,93,30.32,10.0,WSW,4.6,-,N/A,,Clear,250,2012-10-27 12:13:00
7:33 AM,21.2,21.2,100,30.32,10.0,WSW,3.5,-,N/A,,Clear,250,2012-10-27 12:33:00
7:53 AM,23.0,21.2,93,30.32,10.0,Calm,Calm,-,N/A,,Clear,0,2012-10-27 12:53:00
8:13 AM,23.0,21.2,93,30.33,10.0,Calm,Calm,-,N/A,,Clear,0,2012-10-27 13:13:00
8:33 AM,24.8,21.2,86,30.33,10.0,Calm,Calm,-,N/A,,Clear,0,2012-10-27 13:33:00
8:53 AM,26.6,23.0,86,30.33,10.0,Calm,Calm,-,N/A,,Clear,0,2012-10-27 13:53:00
9:33 AM,30.2,24.8,80,30.34,10.0,SW,3.5,-,N/A,,Clear,230,2012-10-27 14:33:00
10:13 AM,32.0,24.8,75,30.35,10.0,SW,3.5,-,N/A,,Clear,230,2012-10-27 15:13:00
10:34 AM,33.8,24.8,70,30.34,10.0,WSW,3.5,-,N/A,,Clear,240,2012-10-27 15:34:00
10:53 AM,35.6,23.0,60,30.34,10.0,Calm,Calm,-,N/A,,Clear,0,2012-10-27 15:53:00
11:13 AM,37.4,23.0,56,30.34,10.0,Calm,Calm,-,N/A,,Clear,0,2012-10-27 16:13:00
11:35 AM,39.2,21.2,49,30.33,10.0,South,6.9,-,N/A,,Clear,180,2012-10-27 16:35:00
11:53 AM,39.2,21.2,49,30.33,10.0,South,8.1,-,N/A,,Clear,180,2012-10-27 16:53:00
12:13 PM,41.0,24.8,53,30.32,10.0,WSW,8.1,-,N/A,,Clear,240,2012-10-27 17:13:00
12:33 PM,42.8,24.8,49,30.31,10.0,SSW,11.5,-,N/A,,Clear,210,2012-10-27 17:33:00
12:53 PM,42.8,24.8,49,30.31,10.0,SW,9.2,-,N/A,,Mostly Cloudy,230,2012-10-27 17:53:00
1:13 PM,41.0,24.8,53,30.30,10.0,SW,8.1,16.1,N/A,,Scattered Clouds,220,2012-10-27 18:13:00
1:33 PM,42.8,24.8,49,30.29,10.0,SW,8.1,-,N/A,,Mostly Cloudy,230,2012-10-27 18:33:00
1:53 PM,44.6,21.2,39,30.28,10.0,South,8.1,-,N/A,,Mostly Cloudy,170,2012-10-27 18:53:00
2:13 PM,44.6,21.2,39,30.28,10.0,South,5.8,-,N/A,,Clear,180,2012-10-27 19:13:00
2:33 PM,44.6,21.2,39,30.27,10.0,South,5.8,-,N/A,,Scattered Clouds,190,2012-10-27 19:33:00
2:54 PM,44.6,21.2,39,30.26,10.0,South,8.1,-,N/A,,Scattered Clouds,190,2012-10-27 19:54:00
3:14 PM,44.6,21.2,39,30.25,10.0,South,6.9,-,N/A,,Scattered Clouds,170,2012-10-27 20:14:00
3:33 PM,44.6,19.4,37,30.24,10.0,South,6.9,-,N/A,,Clear,180,2012-10-27 20:33:00
3:53 PM,44.6,19.4,37,30.24,10.0,SSE,6.9,-,N/A,,Clear,160,2012-10-27 20:53:00
4:13 PM,44.6,19.4,37,30.24,10.0,SSE,8.1,-,N/A,,Scattered Clouds,150,2012-10-27 21:13:00
4:33 PM,44.6,17.6,34,30.24,10.0,SSW,6.9,-,N/A,,Clear,200,2012-10-27 21:33:00
4:53 PM,44.6,19.4,37,30.24,10.0,SSE,8.1,-,N/A,,Mostly Cloudy,160,2012-10-27 21:53:00
5:13 PM,44.6,21.2,39,30.24,10.0,South,8.1,-,N/A,,Overcast,180,2012-10-27 22:13:00
5:33 PM,42.8,21.2,42,30.24,10.0,South,9.2,-,N/A,,Overcast,170,2012-10-27 22:33:00
5:53 PM,41.0,23.0,49,30.24,10.0,SSE,6.9,-,N/A,,Overcast,160,2012-10-27 22:53:00
6:14 PM,39.2,24.8,56,30.24,10.0,SSE,6.9,-,N/A,,Overcast,150,2012-10-27 23:14:00
6:33 PM,39.2,24.8,56,30.25,10.0,SSE,6.9,-,N/A,,Overcast,150,2012-10-27 23:33:00
6:53 PM,37.4,26.6,65,30.26,10.0,SSE,5.8,-,N/A,,Scattered Clouds,160,2012-10-27 23:53:00
7:13 PM,35.6,26.6,70,30.26,10.0,SSE,6.9,-,N/A,,Scattered Clouds,160,2012-10-28 00:13:00
7:34 PM,35.6,26.6,70,30.27,10.0,SSE,5.8,-,N/A,,Clear,160,2012-10-28 00:34:00
7:53 PM,35.6,26.6,70,30.27,10.0,SSE,5.8,-,N/A,,Clear,160,2012-10-28 00:53:00
8:13 PM,35.6,26.6,70,30.27,10.0,SSE,6.9,-,N/A,,Scattered Clouds,150,2012-10-28 01:13:00
8:34 PM,35.6,26.6,70,30.27,10.0,SSE,5.8,-,N/A,,Scattered Clouds,150,2012-10-28 01:34:00
8:53 PM,35.6,26.6,70,30.27,10.0,SE,6.9,-,N/A,,Scattered Clouds,140,2012-10-28 01:53:00
9:13 PM,35.6,24.8,65,30.27,10.0,SSE,5.8,-,N/A,,Scattered Clouds,150,2012-10-28 02:13:00
9:33 PM,35.6,24.8,65,30.27,10.0,SSE,6.9,-,N/A,,Scattered Clouds,150,2012-10-28 02:33:00
9:53 PM,35.6,24.8,65,30.27,10.0,SSE,6.9,-,N/A,,Scattered Clouds,150,2012-10-28 02:53:00
10:13 PM,33.8,24.8,70,30.27,10.0,SSE,6.9,-,N/A,,Mostly Cloudy,150,2012-10-28 03:13:00
10:33 PM,33.8,26.6,75,30.27,10.0,SE,5.8,-,N/A,,Mostly Cloudy,140,2012-10-28 03:33:00
10:53 PM,35.6,26.6,70,30.27,10.0,SSE,5.8,-,N/A,,Overcast,150,2012-10-28 03:53:00
11:13 PM,35.6,26.6,70,30.27,10.0,SSE,5.8,-,N/A,,Overcast,160,2012-10-28 04:13:00
11:33 PM,35.6,26.6,70,30.27,10.0,SSE,4.6,-,N/A,,Overcast,150,2012-10-28 04:33:00
11:54 PM,35.6,28.4,75,30.28,10.0,Calm,Calm,-,N/A,,Overcast,0,2012-10-28 04:54:00